Location: Mexico
(19.4000°N, 99.1500°W)
Time: 05:24:50
(UTC-06:00)

ISS - Pass Details

Date: 20 March 2019
Orbit: 408 x 411 km, 51.6° (Epoch: 24 March)

Event Time Altitude Azimuth Distance (km) Brightness Sun altitude
Exits shadow 05:28:06 44° 210° (SSW) 567 -3.4 -18.0°
Drops below altitude 10° 05:30:54 10° 158° (SSE) 1,459 -0.8 -17.3°
Sets 05:33:01 0° 152° (SSE) 2,318 0.3 -16.8°
